Location: Unspecified
(52.4292°N, 19.3359°E)
Time: 22:46:44
(UTC+02:00)

A-11 Canister half - Pass Details

Date: 18 May 2024
Orbit: 1524 x 1683 km, 47.3° (Epoch: 19 June)

Event Time Altitude Azimuth Distance (km) Brightness Sun altitude
Rises 00:34:15 0° 243° (WSW) 4,720 11.3 -18.0°
Reaches altitude 10° 00:37:19 10° 240° (WSW) 3,755 10.8 -18.0°
Maximum altitude 00:46:36 59° 164° (SSE) 1,806 9.0 -17.9°
Drops below altitude 10° 00:56:13 10° 89° (E) 3,885 11.2 -17.9°
Sets 00:59:27 0° 86° (E) 4,891 11.8 -17.8°
